RH
53 57 66 67 72 78 79 77 69 57 55 69 76 87 96 93 88 78 74 56 39 28 22 21 22 22 22 20 18 15 14 15 20 21 22 27 31 39 44 46 44 40 46
58 74 68 63 77 86 88 88 81 70 68 68 72 74 74 95 99 96 87 77 63 44 30 25 24 25 25 24 23 20 18 16 18 21 22 26 30 33 44 47 44 42 43
44 51 59 78 91 91 88 88 90 86 82 79 78 82 86 86 91 90 98 88 82 55 39 32 30 30 31 31 28 26 28 34 24 25 24 25 31 33 39 48 46 41 42
41 53 63 76 92 88 73 79 93 95 91 98 96 90 89 92 91 94 99 92 90 88 70 50 35 32 32 34 36 35 31 27 29 44 48 42 48 55 51 46 44 41 42
32 53 63 78 78 87 80 82 82 90 84 92 99 100 100 99 99 99 95 91 94 89 80 71 60 40 34 41 36 41 41 36 31 31 33 34 39 53 50 41 41 40 43
16 38 63 80 80 82 85 90 87 84 84 100 100 98 100 100 99 100 98 94 87 80 80 90 90 89 42 54 43 58 48 47 41 36 35 33 38 47 43 37 38 41 46
47 33 45 71 81 82 85 96 88 80 88 82 83 97 97 96 96 98 96 85 78 82 79 76 82 89 72 59 48 57 58 54 52 46 41 41 40 42 46 40 44 48 51
52 50 45 56 74 80 88 93 100 99 96 99 97 96 98 96 92 90 88 82 79 89 87 84 81 76 85 86 69 62 67 60 60 56 50 47 48 45 50 54 61 59 59
31 57 59 68 70 80 81 97 99 93 77 77 83 84 90 86 86 88 89 81 86 84 82 86 84 83 92 94 91 95 93 79 65 63 58 56 54 53 54 59 70 68 73
23 45 60 92 98 99 93 98 95 72 81 78 86 83 86 94 91 91 91 84 81 94 87 85 87 89 92 88 85 85 88 96 68 70 66 63 64 65 63 70 72 74 64
41 46 54 91 100 100 100 98 98 73 63 80 82 78 88 96 100 98 100 98 95 91 82 76 72 80 88 92 90 88 84 90 87 90 74 71 64 64 69 68 83 86 81
88 81 66 81 83 98 97 98 100 94 70 82 88 90 91 98 98 99 99 95 89 80 86 80 71 65 79 89 91 90 91 93 98 94 89 74 74 73 76 71 90 99 96
89 71 90 90 99 100 99 100 99 92 82 72 72 80 88 90 91 91 91 81 80 77 73 69 81 81 74 78 80 91 92 100 99 100 97 90 88 82 83 78 77 96 98
82 91 70 91 99 99 99 99 86 39 29 36 43 56 63 67 75 75 79 82 78 83 80 67 72 78 84 89 91 93 95 90 99 100 99 96 98 90 90 79 78 85 95
92 96 99 99 98 88 78 57 53 49 44 41 56 80 97 96 93 90 98 99 100 96 96 97 77 81 92 92 90 98 98 93 93 96 100 99 96 95 93 74 74 88 94
84 96 100 90 100 93 64 62 76 71 62 52 72 93 86 100 98 100 97 96 99 100 85 84 84 98 94 99 97 95 96 92 97 100 99 100 100 98 95 96 92 92 96
98 99 99 100 100 96 82 84 96 97 99 97 97 91 99 100 92 100 100 95 98 99 98 97 100 100 99 89 97 98 91 97 98 99 99 100 100 100 99 98 98 99 97
96 96 98 98 97 97 97 94 83 87 89 94 94 87 96 99 99 100 99 92 100 98 98 99 100 99 99 100 94 99 100 100 100 100 99 99 100 98 100 99 99 99 100
15 14 14 24 31 60 81 70 38 27 27 26 39 66 86 50 33 45 82 97 99 99 100 98 98 100 99 99 100 99 99 100 98 97 100 99 99 98 98 100 99 99 99
4 4 4 3 4 3 4 3 3 3 3 4 4 5 7 20 4 3 3 4 5 7 29 52 26 63 42 49 69 94 100 100 100 100 100 100 100 100 99 100 100 100 99
4 4 4 4 4 3 3 3 3 3 3 3 3 3 3 3 3 3 3 3 3 3 3 3 3 3 5 8 16 24 43 97 99 100 100 100 100 99 99 99 99 99 99
4 4 4 4 4 4 4 4 4 4 4 4 4 4 4 4 4 4 4 5 4 4 4 3 3 2 2 2 3 3 7 27 68 98 100 100 99 100 100 99 100 100 100
4 5 5 5 5 5 5 5 5 5 5 5 5 6 8 9 9 9 9 10 10 10 9 7 6 5 4 4 3 3 3 3 7 30 51 87 99 100 100 99 100 99 99
6 6 6 6 6 6 6 6 6 7 8 10 11 11 10 10 9 8 8 7 7 7 7 7 7 6 6 6 7 6 3 2 2 3 5 22 48 68 72 97 99 99 100
7 7 7 7 7 7 7 8 10 13 13 12 9 8 8 8 10 10 9 8 7 8 8 8 8 6 6 6 5 5 6 6 4 3 3 3 3 16 36 46 96 95 99
8 9 8 8 8 8 9 11 12 10 10 11 17 22 25 25 22 20 20 18 14 12 10 9 11 14 16 15 11 8 6 5 5 5 7 5 3 3 4 18 52 97 91
Wind_Speed
36 35 32 34 34 35 31 31 30 30 30 29 29 28 28 27 26 26 24 22 20 20 18 17 16 17 17 17 16 17 17 17 16 15 15 14 14 13 12 11 9 9 10
39 38 36 35 32 33 32 31 31 30 31 33 32 32 31 30 28 27 28 26 23 22 22 20 19 18 18 18 18 17 18 18 18 18 17 17 16 16 15 14 12 11 11
41 42 39 35 34 34 34 35 36 35 34 34 36 37 33 33 33 30 31 31 27 25 24 24 23 21 20 20 20 20 19 20 20 19 19 19 18 18 17 16 14 13 13
40 42 40 39 36 35 35 38 36 36 35 39 43 42 37 36 35 30 35 33 27 25 30 28 28 25 23 23 21 22 22 22 22 22 22 21 20 20 19 18 16 16 15
42 42 44 40 37 39 44 38 40 39 36 36 35 32 34 44 33 31 34 28 25 28 29 30 30 30 29 27 25 24 25 24 24 24 24 23 22 21 21 20 19 18 17
42 44 43 42 42 43 42 43 37 32 35 34 33 35 38 36 27 27 26 27 29 33 32 35 33 34 34 31 30 29 29 27 25 25 25 24 24 23 24 23 22 20 20
40 44 45 43 41 40 39 40 40 37 36 41 46 40 30 30 31 26 25 28 30 30 30 31 34 34 37 36 34 33 33 31 28 27 26 25 26 25 25 25 24 24 23
41 41 44 45 42 37 37 40 39 37 36 37 36 34 39 29 25 25 27 29 31 31 33 32 32 32 34 37 37 35 35 35 33 30 29 28 28 29 28 27 27 26 23
43 35 38 41 46 43 41 39 39 38 33 31 26 28 33 33 31 30 24 24 28 30 30 31 32 35 35 38 37 37 41 41 37 33 33 31 31 33 33 30 26 28 24
41 40 40 42 42 45 46 43 37 36 33 33 33 35 35 31 34 34 33 34 29 26 26 28 30 31 31 35 38 38 40 37 40 35 37 35 31 29 32 32 31 29 27
32 37 41 46 49 45 40 42 38 34 32 32 30 32 33 32 33 33 31 31 32 32 32 29 29 32 35 35 37 36 36 44 45 42 42 40 37 40 39 36 35 34 30
23 28 41 37 49 64 50 36 33 31 33 33 33 32 33 35 36 35 34 39 39 37 36 37 36 34 31 38 40 39 34 37 41 54 43 43 42 43 39 38 37 38 28
16 24 26 34 33 21 37 35 31 30 30 32 33 34 36 37 37 37 37 40 43 44 41 37 35 33 36 40 41 41 41 38 36 39 51 53 49 45 43 41 41 41 37
21 23 33 41 41 13 16 20 27 30 32 34 34 34 37 39 40 41 43 45 47 45 45 38 36 38 35 38 37 39 39 40 45 44 42 42 43 47 43 43 44 43 44
12 17 11 9 9 12 18 23 28 31 33 35 34 33 35 34 38 37 37 34 38 42 42 43 37 36 32 36 38 43 42 42 44 45 45 49 49 44 46 44 42 43 45
19 12 14 14 13 16 19 22 25 29 32 34 32 34 33 36 40 32 36 43 39 44 45 45 44 42 37 40 42 38 39 40 41 39 41 48 52 56 53 43 41 44 44
15 15 15 15 19 17 20 22 23 23 26 26 28 32 32 40 33 39 41 43 48 42 48 44 39 39 44 47 40 40 44 37 42 42 39 37 43 57 59 48 43 45 48
18 18 20 23 23 25 25 25 30 31 32 32 34 37 35 36 41 44 50 44 53 44 54 49 47 44 44 38 46 43 38 37 35 39 37 38 37 45 56 48 58 47 42
23 22 20 20 21 23 24 24 26 27 28 28 29 33 32 31 36 36 36 39 39 38 49 43 38 44 35 38 32 38 45 45 45 34 41 37 37 39 42 45 55 55 52
23 24 24 24 24 26 26 27 28 29 30 31 33 34 35 37 41 40 40 39 40 40 38 36 43 37 41 39 40 36 38 31 28 37 35 35 40 35 38 42 48 48 57
23 23 23 24 24 25 25 25 24 25 27 28 30 31 33 35 36 38 37 36 39 41 42 44 46 47 46 44 46 42 41 36 34 32 33 35 37 35 36 37 39 40 40
24 24 24 24 24 25 25 25 26 26 28 29 30 31 32 33 36 36 37 37 39 40 41 42 44 46 46 47 48 47 46 43 44 44 38 36 34 34 33 36 40 38 35
23 22 22 23 24 24 24 26 27 29 29 30 30 30 30 31 33 35 34 34 36 37 40 41 41 42 44 44 47 46 49 50 50 48 47 50 44 41 37 36 34 36 33
24 24 24 25 26 28 28 27 27 28 29 30 30 31 31 30 32 33 33 33 34 34 37 39 40 41 43 42 44 46 47 50 52 52 51 56 51 52 45 41 37 35 31
25 26 26 27 28 29 29 30 30 28 27 27 27 29 30 29 30 31 33 32 32 31 35 37 38 40 40 41 43 47 45 48 50 50 48 57 56 53 52 45 42 39 33
26 28 28 29 30 29 29 29 30 30 28 26 25 27 29 31 32 34 37 39 39 36 37 36 34 34 35 36 38 42 46 49 50 51 45 49 53 55 58 53 48 45 41
Wind_Direction
265 261 262 268 269 267 263 261 261 258 255 252 249 246 247 250 254 258 260 259 260 268 267 268 270 274 277 276 274 271 267 264 260 259 259 255 250 246 246 252 262 280 296
261 265 267 266 266 264 265 265 261 255 254 253 251 252 248 246 252 258 261 259 262 261 266 269 270 272 274 276 275 273 269 266 262 259 255 253 251 247 247 252 260 273 286
254 258 261 264 262 262 261 267 259 258 256 257 258 255 252 254 246 248 256 259 263 259 259 263 264 266 269 273 277 275 271 268 264 259 256 255 252 249 248 251 258 268 277
252 253 254 255 260 263 264 265 265 265 266 261 259 253 252 250 250 247 259 249 253 268 257 255 259 261 264 267 271 275 274 269 266 263 260 257 255 253 249 251 255 262 270
248 253 255 254 253 258 258 258 263 264 265 265 243 246 252 245 242 237 249 254 257 263 260 255 257 260 260 264 269 272 273 272 269 265 264 260 256 253 251 252 254 259 266
249 248 253 253 249 253 258 258 260 258 262 257 245 245 243 253 264 252 249 250 256 259 261 257 256 257 256 264 263 272 272 268 268 267 266 264 259 255 255 254 255 257 262
250 245 248 252 252 251 254 252 252 262 249 263 268 272 259 256 256 264 259 255 256 264 263 267 258 254 251 253 257 264 264 266 263 262 260 261 260 257 254 254 259 261 262
247 250 245 250 251 248 248 249 250 248 260 258 260 250 265 252 258 267 270 263 260 255 258 262 263 260 257 250 252 256 257 259 261 259 258 259 258 256 255 255 256 260 262
242 241 244 251 249 243 247 242 246 258 262 252 257 261 259 268 261 252 266 275 260 255 257 262 263 262 258 257 253 256 256 247 258 258 258 258 260 258 256 254 258 256 257
247 234 231 241 238 237 240 235 237 241 242 247 245 248 258 266 268 266 258 262 268 267 268 265 265 265 265 262 257 257 251 247 250 256 259 256 254 258 260 254 253 249 262
241 235 235 237 237 228 217 229 238 244 247 248 249 250 256 262 260 261 269 263 264 264 273 265 268 263 262 264 265 263 257 248 248 247 249 256 259 261 261 256 252 247 250
255 248 244 255 264 234 235 236 238 243 247 249 252 254 254 258 261 267 268 266 267 263 270 274 273 268 258 266 259 264 260 259 254 251 238 251 255 258 258 254 251 249 251
273 278 262 258 240 260 226 232 239 244 250 256 259 259 259 260 263 267 270 272 273 275 272 269 264 269 268 270 264 259 257 259 257 258 246 241 243 254 256 256 253 255 259
262 304 278 259 248 255 221 234 249 253 255 256 258 261 261 262 263 263 265 266 271 273 274 267 263 263 267 262 267 263 269 256 256 253 253 247 242 249 255 256 257 258 259
280 297 316 314 295 273 257 252 256 257 259 260 261 260 268 264 264 264 261 265 275 273 273 276 273 269 263 261 264 258 263 261 258 257 258 249 239 246 249 254 252 250 250
288 312 314 304 287 282 272 269 268 274 270 270 265 268 261 261 266 262 270 264 262 265 274 278 272 271 268 266 272 271 264 265 257 256 256 259 255 242 242 250 247 247 254
308 298 292 280 287 285 281 282 278 280 276 277 261 277 271 260 269 262 255 264 259 256 262 264 265 261 273 271 266 269 263 258 257 257 254 260 255 247 243 242 247 244 250
300 300 287 281 279 282 281 274 271 274 276 273 271 273 275 266 268 265 263 262 259 258 263 259 266 266 268 262 273 270 263 247 256 259 264 258 258 251 246 243 243 247 244
310 306 299 292 287 284 282 277 278 277 274 273 274 278 271 271 274 277 277 270 264 259 255 261 269 253 262 260 260 266 262 253 252 246 253 252 249 246 252 255 251 244 246
305 301 300 297 292 286 283 281 280 279 279 278 276 275 274 273 275 273 270 270 271 274 277 278 272 269 266 265 269 264 262 236 247 242 238 239 237 242 239 244 253 254 263
309 305 302 299 297 295 294 292 290 290 287 285 284 282 279 277 279 277 279 280 275 273 270 267 267 267 265 264 267 268 268 260 253 252 250 248 248 255 249 251 253 255 260
310 308 307 305 304 303 302 300 297 293 291 288 285 285 286 285 283 283 281 282 280 277 274 272 269 268 266 265 263 262 262 258 255 256 254 254 260 258 255 256 257 259 257
308 305 303 302 300 299 299 298 298 297 296 295 293 290 287 286 285 284 283 281 279 279 279 277 274 271 270 268 266 263 261 260 256 254 253 254 251 251 253 255 262 259 262
307 307 307 306 306 305 303 299 297 297 297 297 296 294 292 289 287 285 284 282 281 280 279 278 278 277 274 272 271 268 263 260 259 257 254 253 248 251 252 252 251 250 259
310 311 309 308 306 303 302 301 298 297 297 297 298 298 297 296 293 293 291 286 283 281 280 281 281 279 276 273 270 269 268 266 262 257 253 257 254 250 248 244 246 249 248
312 311 311 309 306 304 303 301 302 304 304 302 303 301 300 299 298 299 300 300 297 293 287 281 278 278 280 278 275 272 270 269 268 265 257 255 255 252 249 243 238 239 243